When you browse on this site, cookies collect data to enhance your experience and personalize the content and advertising you see.
Visit our Privacy Policy to learn more. By continuing to use the site, you agree to this use of cookies and data.
  • In Österreich
  • Länderverzeichnis
  • Für 7 Tage
  • Wassertemperatur
  • Satellitenkarten
  • Wetterkarte
  • News
  • Widgets
  • user-avatar
    Anmelden

    Stündliche Wetter Summerville

    Heute, 22 Juli, Montag

    Zeit Temperatur Niederschläge Wind Luftdruck Luftfeuchtigkeit
    00:00 +28°C° 0 mm 3 m/S 759 mmHg 80%
    01:00 +28°C° 0 mm 2 m/S 759 mmHg 82%
    02:00 +28°C° 0 mm 2 m/S 759 mmHg 82%
    03:00 +27°C° 0 mm 2 m/S 759 mmHg 82%
    04:00 +27°C° 0 mm 2 m/S 758 mmHg 82%
    05:00 +27°C° 0 mm 2 m/S 759 mmHg 81%
    06:00 +27°C° 0 mm 2 m/S 759 mmHg 79%
    07:00 +28°C° 0 mm 2 m/S 759 mmHg 78%
    08:00 +30°C° 0 mm 2 m/S 759 mmHg 69%
    09:00 +32°C° 0 mm 2 m/S 760 mmHg 60%
    10:00 +35°C° 0 mm 2 m/S 760 mmHg 52%
    11:00 +35°C° 0 mm 2 m/S 759 mmHg 50%
    12:00 +36°C° 0 mm 3 m/S 759 mmHg 48%
    13:00 +36°C° 0 mm 3 m/S 759 mmHg 46%
    14:00 +36°C° 0 mm 3 m/S 759 mmHg 46%
    15:00 +36°C° 0 mm 4 m/S 758 mmHg 46%
    16:00 +36°C° 0 mm 4 m/S 758 mmHg 46%
    17:00 +35°C° 0 mm 4 m/S 758 mmHg 52%
    18:00 +33°C° 0 mm 4 m/S 758 mmHg 59%
    19:00 +30°C° 0 mm 4 m/S 758 mmHg 65%
    20:00 +30°C° 0 mm 4 m/S 758 mmHg 68%
    21:00 +29°C° 0 mm 3 m/S 758 mmHg 71%
    22:00 +29°C° 0 mm 3 m/S 758 mmHg 75%
    23:00 +28°C° 0 mm 3 m/S 758 mmHg 76%

    Morgen, 23 Juli, Dienstag

    Zeit Temperatur Niederschläge Wind Luftdruck Luftfeuchtigkeit
    00:00 +28°C° 0 mm 3 m/S 757 mmHg 77%
    01:00 +28°C° 0 mm 3 m/S 757 mmHg 79%
    02:00 +28°C° 0 mm 3 m/S 757 mmHg 79%
    03:00 +28°C° 0 mm 2 m/S 757 mmHg 80%
    04:00 +27°C° 0 mm 2 m/S 757 mmHg 80%
    05:00 +27°C° 0.4 mm 2 m/S 757 mmHg 81%
    06:00 +27°C° 0.4 mm 2 m/S 757 mmHg 82%
    07:00 +28°C° 0.4 mm 2 m/S 757 mmHg 83%
    08:00 +29°C° 0 mm 3 m/S 757 mmHg 73%
    09:00 +31°C° 0 mm 3 m/S 757 mmHg 63%
    10:00 +34°C° 0 mm 4 m/S 757 mmHg 53%
    11:00 +35°C° 0 mm 4 m/S 757 mmHg 49%
    12:00 +36°C° 0 mm 4 m/S 756 mmHg 45%
    13:00 +37°C° 0 mm 4 m/S 756 mmHg 41%
    14:00 +37°C° 0 mm 4 m/S 756 mmHg 42%
    15:00 +37°C° 0 mm 4 m/S 755 mmHg 44%
    16:00 +37°C° 0 mm 4 m/S 755 mmHg 45%
    17:00 +34°C° 0.9 mm 3 m/S 755 mmHg 58%
    18:00 +30°C° 0.9 mm 3 m/S 756 mmHg 71%
    19:00 +27°C° 0.9 mm 3 m/S 756 mmHg 85%
    20:00 +26°C° 3 mm 2 m/S 756 mmHg 87%
    21:00 +26°C° 3 mm 2 m/S 757 mmHg 90%
    22:00 +25°C° 3 mm 2 m/S 757 mmHg 93%
    23:00 +25°C° 0.2 mm 1 m/S 757 mmHg 93%

    übermorgen, 24 Juli, Mittwoch

    Zeit Temperatur Niederschläge Wind Luftdruck Luftfeuchtigkeit
    00:00 +25°C° 0.2 mm 1 m/S 756 mmHg 93%
    01:00 +23°C° 0.2 mm 0 m/S 756 mmHg 92%
    02:00 +22°C° 0.4 mm 0 m/S 756 mmHg 93%
    03:00 +22°C° 0.4 mm 0 m/S 756 mmHg 93%
    04:00 +22°C° 0.4 mm 0 m/S 756 mmHg 94%
    05:00 +24°C° 0.3 mm 1 m/S 756 mmHg 93%
    06:00 +25°C° 0.3 mm 1 m/S 757 mmHg 92%
    07:00 +25°C° 0.3 mm 1 m/S 757 mmHg 91%
    08:00 +25°C° 0.1 mm 2 m/S 758 mmHg 89%
    09:00 +26°C° 0.1 mm 2 m/S 758 mmHg 86%
    10:00 +26°C° 0.1 mm 2 m/S 758 mmHg 83%
    11:00 +26°C° 0.8 mm 2 m/S 758 mmHg 83%
    12:00 +26°C° 0.8 mm 2 m/S 758 mmHg 83%
    13:00 +26°C° 0.8 mm 2 m/S 758 mmHg 83%
    14:00 +26°C° 1.9 mm 2 m/S 757 mmHg 85%
    15:00 +25°C° 1.9 mm 2 m/S 757 mmHg 87%
    16:00 +25°C° 1.9 mm 2 m/S 757 mmHg 89%
    17:00 +25°C° 0.8 mm 2 m/S 757 mmHg 89%
    18:00 +25°C° 0.8 mm 1 m/S 757 mmHg 90%
    19:00 +25°C° 0.8 mm 1 m/S 758 mmHg 90%
    20:00 +24°C° 0.1 mm 1 m/S 758 mmHg 90%
    21:00 +24°C° 0.1 mm 1 m/S 758 mmHg 91%
    22:00 +24°C° 0.1 mm 1 m/S 758 mmHg 91%
    23:00 +24°C° 0.1 mm 1 m/S 758 mmHg 90%

    25 Juli, Donnerstag

    Zeit Temperatur Niederschläge Wind Luftdruck Luftfeuchtigkeit
    00:00 +24°C° 0.1 mm 1 m/S 758 mmHg 90%
    01:00 +24°C° 0.1 mm 1 m/S 757 mmHg 90%
    02:00 +24°C° 0 mm 2 m/S 757 mmHg 90%
    03:00 +23°C° 0 mm 2 m/S 757 mmHg 90%
    04:00 +23°C° 0 mm 2 m/S 758 mmHg 90%
    05:00 +24°C° 0 mm 2 m/S 758 mmHg 89%
    06:00 +24°C° 0 mm 3 m/S 758 mmHg 87%
    07:00 +25°C° 0 mm 3 m/S 759 mmHg 86%
    08:00 +26°C° 0 mm 3 m/S 759 mmHg 78%
    09:00 +28°C° 0 mm 4 m/S 759 mmHg 69%
    10:00 +29°C° 0 mm 4 m/S 760 mmHg 61%
    11:00 +30°C° 0.1 mm 4 m/S 759 mmHg 57%
    12:00 +32°C° 0.1 mm 4 m/S 759 mmHg 53%
    13:00 +33°C° 0.1 mm 4 m/S 759 mmHg 49%
    14:00 +33°C° 0.1 mm 4 m/S 759 mmHg 50%
    15:00 +33°C° 0.1 mm 4 m/S 759 mmHg 51%
    16:00 +33°C° 0.1 mm 3 m/S 759 mmHg 52%
    17:00 +31°C° 0 mm 3 m/S 759 mmHg 58%
    18:00 +29°C° 0 mm 3 m/S 760 mmHg 64%
    19:00 +28°C° 0 mm 2 m/S 760 mmHg 69%
    20:00 +27°C° 0 mm 2 m/S 760 mmHg 73%
    21:00 +27°C° 0 mm 2 m/S 761 mmHg 76%
    22:00 +26°C° 0 mm 2 m/S 761 mmHg 80%
    23:00 +26°C° 0 mm 2 m/S 761 mmHg 80%

    26 Juli, Freitag

    Zeit Temperatur Niederschläge Wind Luftdruck Luftfeuchtigkeit
    00:00 +25°C° 0 mm 1 m/S 761 mmHg 81%
    01:00 +25°C° 0 mm 1 m/S 761 mmHg 82%
    02:00 +25°C° 0 mm 2 m/S 761 mmHg 82%
    03:00 +25°C° 0 mm 2 m/S 761 mmHg 82%
    04:00 +25°C° 0 mm 2 m/S 761 mmHg 82%
    05:00 +25°C° 0.4 mm 2 m/S 761 mmHg 83%
    06:00 +25°C° 0.4 mm 2 m/S 762 mmHg 84%
    07:00 +24°C° 0.4 mm 2 m/S 762 mmHg 85%
    08:00 +25°C° 0.1 mm 2 m/S 762 mmHg 82%
    09:00 +26°C° 0.1 mm 2 m/S 763 mmHg 79%
    10:00 +27°C° 0.1 mm 2 m/S 763 mmHg 76%
    11:00 +27°C° 0 mm 2 m/S 763 mmHg 72%
    12:00 +28°C° 0 mm 2 m/S 763 mmHg 69%
    13:00 +29°C° 0 mm 2 m/S 763 mmHg 66%
    14:00 +29°C° 0.1 mm 2 m/S 763 mmHg 64%
    15:00 +30°C° 0.1 mm 2 m/S 763 mmHg 62%
    16:00 +30°C° 0.1 mm 2 m/S 762 mmHg 60%
    17:00 +29°C° 0.2 mm 2 m/S 762 mmHg 65%
    18:00 +28°C° 0.2 mm 1 m/S 762 mmHg 71%
    19:00 +27°C° 0.2 mm 1 m/S 762 mmHg 77%
    20:00 +26°C° 0 mm 1 m/S 763 mmHg 79%
    21:00 +26°C° 0 mm 1 m/S 763 mmHg 81%
    22:00 +25°C° 0 mm 1 m/S 763 mmHg 83%
    23:00 +25°C° 0 mm 1 m/S 763 mmHg 85%

    27 Juli, Samstag

    Zeit Temperatur Niederschläge Wind Luftdruck Luftfeuchtigkeit
    00:00 +24°C° 0 mm 1 m/S 763 mmHg 86%
    01:00 +22°C° 0 mm 0 m/S 763 mmHg 88%
    02:00 +24°C° 0 mm 1 m/S 763 mmHg 89%
    03:00 +24°C° 0 mm 1 m/S 763 mmHg 90%
    04:00 +24°C° 0 mm 1 m/S 763 mmHg 91%
    05:00 +24°C° 0 mm 1 m/S 763 mmHg 89%
    06:00 +25°C° 0 mm 2 m/S 764 mmHg 87%
    07:00 +25°C° 0 mm 2 m/S 764 mmHg 85%
    08:00 +27°C° 0 mm 2 m/S 764 mmHg 76%
    09:00 +29°C° 0 mm 2 m/S 765 mmHg 67%
    10:00 +31°C° 0 mm 2 m/S 765 mmHg 59%
    11:00 +31°C° 0.1 mm 2 m/S 765 mmHg 57%
    12:00 +32°C° 0.1 mm 2 m/S 764 mmHg 56%
    13:00 +32°C° 0.1 mm 2 m/S 764 mmHg 54%
    14:00 +32°C° 0.8 mm 2 m/S 764 mmHg 58%
    15:00 +31°C° 0.8 mm 2 m/S 764 mmHg 62%
    16:00 +31°C° 0.8 mm 2 m/S 763 mmHg 66%
    17:00 +30°C° 0.4 mm 2 m/S 763 mmHg 70%
    18:00 +29°C° 0.4 mm 1 m/S 763 mmHg 75%
    19:00 +28°C° 0.4 mm 1 m/S 763 mmHg 80%
    20:00 +27°C° 0 mm 1 m/S 764 mmHg 82%
    21:00 +26°C° 0 mm 1 m/S 764 mmHg 84%
    22:00 +26°C° 0 mm 1 m/S 764 mmHg 86%
    23:00 +24°C° 0 mm 0 m/S 764 mmHg 86%
    Mehr zeigen